2024-169E

Last updated on Mon Oct 21 2024 00:02:04 GMT+0000 (Coordinated Universal Time)

1 61193U 24169E 24294.55777583 .00023899 00000+0 14190-2 0 9997 2 61193 97.5966 19.7302 0014620 174.8359 185.3024 15.11221398 4589
UTC large
Height (km)
Speed (km/s)
/
Latitude / Longitude
Inclination (degrees)
Orbital Period (minutes)
Azimuth
Elevation
Range (km)
Doppler Factor

Next 0 passes for location: London (51.5072 / 0.1276)

Sorry there are no passes over London.